Regional Weather Roundup
Issued by NWS

Home | Current Version | Previous Version | Text Only | Print | Product List | Glossary On
Versions: 1 2 3 4 5 6 7 8 9 10 11 12 13 14 15 16 17 18 19 20 21 22 23 24 25 26 27
000
ASUS44 KLIX 170113
RWRLA
LOUISIANA WEATHER ROUNDUP
NATIONAL WEATHER SERVICE NEW ORLEANS LA
800 PM CDT MON OCT 16 2017

NOTE: "FAIR" INDICATES FEW OR NO CLOUDS BELOW 12,000 FEET WITH NO
      SIGNIFICANT WEATHER AND/OR OBSTRUCTIONS TO VISIBILITY.
      SKY/WX - SKY CONDITION AND SIGNIFICANT WEATHER.
      TMP - AIR TEMPERATURE.    DP   - DEWPOINT TEMPERATURE.
      RH  - RELATIVE HUMIDITY.  PRES - PRESSURE.
      HX  - HEAT INDEX.         WCI  - WIND CHILL INDEX.

*  THESE STATIONS ARE NOT NWS OR FAA STATIONS AND ARE NOT UNDER
   NWS QUALITY CONTROL.

LAZ040-048-061>063-065-066-069-170200-
SOUTHEAST LOUISIANA

CITY           SKY/WX    TMP DP  RH WIND       PRES   REMARKS
N.O. INTL ARPT CLOUDY    70  52  52 N15       30.15R
N.O. LAKEFRONT MOCLDY    72  53  51 N23       30.15R
N.O. DOWNTOWN* FAIR      71  49  45 N8G16     30.16R
RESERVE*       FAIR      70  46  42 NE10G20   30.16R
SLIDELL        CLOUDY    64  52  64 N12       30.14R
BATON ROUGE    MOCLDY    63  49  60 N5        30.17R
BOOTHVILLE     MOCLDY    74  55  51 N13G20    30.10R
BELLE CHASSE   NOT AVBL
BOGALUSA*      FAIR      60  53  78 N3        30.17R
GALLIANO*      CLOUDY    69  49  49 N10       30.12R
NEW ROADS*     FAIR      61  46  58 N6        30.20R
GONZALES*      FAIR      66  47  49 N7        30.15R
HAMMOND*       CLOUDY    59  50  72 CALM      30.16R
HOUMA*         CLOUDY    64  51  60 N10       30.14R
PORT FOURCHON* MOCLDY    72  54  53 N17G25    30.11R

$$

LAZ041-044-053-054-170200-
SOUTHWEST LOUISIANA

CITY           SKY/WX    TMP DP  RH WIND       PRES   REMARKS
LAKE CHARLES   CLEAR     67  45  45 N8        30.19R
LAFAYETTE      PTCLDY    66  45  46 N10       30.18R
PATTERSON      NOT AVBL
SALT POINT       N/A     64  52  64 CALM      30.15R
NEW IBERIA     NOT AVBL
CHENAULT AIRPK NOT AVBL

$$

LAZ027-028-170200-
CENTRAL LOUISIANA

CITY           SKY/WX    TMP DP  RH WIND       PRES   REMARKS
FORT POLK      CLEAR     62  44  51 N6        30.22R
ALEXANDRIA INT CLEAR     63  43  48 N8        30.21R
ALEXANDRIA     CLEAR     62  42  47 N5        30.22R

$$

LAZ001-002-170200-
NORTHWEST LOUISIANA

CITY           SKY/WX    TMP DP  RH WIND       PRES   REMARKS
SHREVEPORT     CLEAR     61  43  51 E6        30.26R
BARKSDALE AFB  CLEAR     61  41  48 CALM      30.26R
DTN SHREVEPORT CLEAR     60  44  55 NE3       30.27R

$$

LAZ014-016-170200-
NORTHEAST LOUISIANA

CITY           SKY/WX    TMP DP  RH WIND       PRES   REMARKS
MONROE         CLEAR     58  44  60 N8        30.26R
TALLULAH       CLEAR     58  46  64 N6        30.24R

$$





USA.gov is the U.S. government's official web portal to all federal, state and local government web resources and services.